DELTA 1 DEB

Satellite information

Favourite Embed

Satellite Type and Status

DEBRISIN ORBIT

Key statistics

Satellite DELTA 1 DEB at a glance.

Uptime

17345

Days in orbit

Revolutions

≈ 14.3

Per day

Orbit

SSO

Sun Synchronous Orbit

Inclination

98.9

Latest

Satellite identification and parameters

Extended collection of information and parameters for DELTA 1 DEB.

Object identification

Identified? True

Debris? True

Object name: DELTA 1 DEB

International designator: 1978-026FS

Object number (NORAD): 13579

Object ID (CCSDS): 13579

Country: UNITED STATES OF AMERICA (US)

Current information (Y/N): Y

RCS size: SMALL

Orbital parameters

Period: 100.916 minutes

Inclination: 98.899 deg

SMA: 7180.159 km

Apoapsis: 814.017 km

Periapsis: 790.031 km

RAAN: 228.1864 deg

Eccentricy: 0.0016703

Argument of periapsis: 219.4333 deg

Mean anomaly: 140.5632 deg

Mean motion: 14.26926834 rev/day

Mean motion (dot): 0.0000143 rev/day2

B* drag term: 0.0006067873 1/REarth

Two-line elements (TLE)

Creation date: Aug. 30, 2025, 3:38 a.m.

Reference frame: TEME

Reference center: EARTH

Epoch: Aug. 29, 2025, 10:11 p.m. UTC

TLE line 0: 0 DELTA 1 DEB

TLE line 1: 1 13579U 78026FS 25241.92466980 .00001430 00000-0 60679-3 0 9995

TLE line 2: 2 13579 98.8990 228.1864 0016703 219.4333 140.5632 14.26926834272280

Live tracking on map

Real-time ground track for satellite DELTA 1 DEB.

In-orbit conjunctions

A list of the most updated potential collisions computed for object DELTA 1 DEB.

Target Orbit TCA Probability of collision Miss distance Type
STELLA SSO 2025-05-06 14:50:30 0.000229463 637.0 (m) PAYLOAD
PEGASUS R/B SSO 2024-06-03 22:15:46 0.0001221658 641.0 (m) ROCKET BODY

Associated space launch

Earth observation satellite

DELTA 1 DEB was lifted into orbit during the mission ‘Delta 2910 | Landsat 3’, on board a Delta 2910 space rocket.

The launch took place on March 5, 1978, 5:54 p.m. from Space Launch Complex 2W.

For more information about the launch, click the button.

Launch to space Delta 2910 | Landsat 3
Delta 2910 | Landsat 3

Agency: N/A

Status: Launch Successful

Launch date: March 5, 1978, 5:54 p.m. UTC

Rocket: Delta 2910

Launch pad: Space Launch Complex 2W

Location: Vandenberg SFB, CA, USA

...

Latest news about this satellite

There are no fresh news available about this satellite. Check back as we update our databases every day.


Newsletter sign-up

Weekly statistics, charts and insights to help you stay on top of the space industry.